Regional Weather Roundup
Issued by NWS

Home | Current Version | Previous Version | Text Only | Print | Product List | Glossary Off
Versions: 1 2 3 4 5 6 7 8 9 10 11 12 13 14 15 16 17 18 19 20 21 22 23 24 25 26 27

000
ASUS45 KBOU 161806
RWRCO

WEATHER ROUNDUP FOR COLORADO
NATIONAL WEATHER SERVICE DENVER/BOULDER CO
1200 PM MDT WED APR 16 2014

NOTE: "FAIR" INDICATES FEW OR NO CLOUDS BELOW 12000 FEET WITH NO
SIGNIFICANT WEATHER AND/OR OBSTRUCTIONS TO VISIBILITY.

COZ001>005-013-030-031-161900-
...NORTHWEST COLORADO...

CITY           SKY/WX    TMP DP  RH WIND       PRES   REMARKS
CRAIG          MOSUNNY   45   9  23 W9        30.00F
HAYDEN         MOSUNNY   43  10  26 NW5       30.02S
MEEKER         CLOUDY    46  15  28 VRB5      29.99F
MOUNT WERNER   NOT AVBL
STEAMBOAT SPGS PTSUNNY   41  10  28 NW8       29.99S
WALDEN         MOSUNNY   36  10  35 SW9       29.98R
$$

COZ006>008-011-161900-
...WEST CENTRAL VALLEYS...

CITY           SKY/WX    TMP DP  RH WIND       PRES   REMARKS
GRAND JUNCTION CLOUDY    54  11  18 VRB3      29.95F
MONTROSE       CLOUDY    51  17  26 N8        29.98S
EAGLE          CLOUDY    46  14  27 CALM      29.98F
RIFLE          CLOUDY    50  11  20 CALM      29.97F
DELTA          CLOUDY    58  12  16 W9        29.94F
NUCLA            N/A     54  14  20 NW13      29.97S
$$

COZ017>023-064>068-161900-
...SOUTHWEST COLORADO...

CITY           SKY/WX    TMP DP  RH WIND       PRES   REMARKS
DURANGO        MOSUNNY   59  11  15 W12       29.90F
CORTEZ         PTSUNNY   62  19  19 W10       29.91S
PAGOSA SPRINGS MOSUNNY   56   5  13 S12G17    29.92F
TELLURIDE      CLOUDY    46  16  29 CALM      29.99S
WOLF CREEK PAS SUNNY     36  10  35 SW8G17    30.05S
$$

COZ009-010-012-014-032>034-037-058>063-161900-
...CENTRAL COLORADO...

CITY           SKY/WX    TMP DP  RH WIND       PRES   REMARKS
ASPEN          CLOUDY    45  14  28 NW6       29.97S
BUENA VISTA    PTSUNNY   50   8  18 W15G24    29.89S
COPPER MTN     PTSUNNY   32  10  40 W12G25    30.02R WCI  23
BERTHOUD PASS  FAIR      18   9  68 W23G31    30.01S WCI   0
COTTONWOOD PAS MOSUNNY   45   5  19 W10G24    29.94R
GUNNISON       PTSUNNY   48  16  27 W14G26    29.97S
KREMMLING      MOSUNNY   45   9  23 W8G18     29.99S
LEADVILLE      CLOUDY    35   9  33 W7        29.97S WCI  29
MONARCH PASS   MOSUNNY   28  14  54 W40G51    30.10S WCI  11
SALIDA         MOSUNNY   58  10  14 SW17G32   29.95S
SUNLIGHT       CLOUDY    32  14  47 CALM      30.05S
WILKERSON PASS SUNNY     36  12  38 W5        30.01R
$$

COZ069>075-161900-
...SAN LUIS VALLEY/SANGRE DE CRISTO MOUNTAINS...

CITY           SKY/WX    TMP DP  RH WIND       PRES   REMARKS
ALAMOSA        PTSUNNY   57  14  18 S6        29.89F
LA VETA PASS   PTSUNNY   45  14  29 SW6       30.00S
SAGUACHE       SUNNY     55  14  19 NW20G32   29.90F
$$

COZ035-036-038>040-161900-
...NORTHERN COLORADO FRONT RANGE...

CITY           SKY/WX    TMP DP  RH WIND       PRES   REMARKS
DENVER INTL AP MOSUNNY   53  21  28 N22G32    29.90F
DMNS CITY PARK   N/A     53  17  24 NE13G20   29.90S
AURORA         MOSUNNY   52  18  25 NE18      29.91S
FRONT RANGE AP MOSUNNY   54  19  26 N17G28    29.91S
ERIE MUNI ARPT SUNNY     53  19  26 N12G21    29.90S
BOULDER MUN AP SUNNY     52  21  30 E12G22    29.89S
CENTENNIAL     PTSUNNY   50  18  28 N9G18     29.90S
BROOMFIELD     MOSUNNY   54  21  28 NE15      29.90F
FORT COLLINS   SUNNY     54  21  28 N21G29    29.92S
LONGMONT       SUNNY     55  23  28 NE20G28   29.90S
$$

COZ041-046-047-076>085-087-088-161900-
...PIKES PEAK/PALMER DIVIDE AND SOUTHERN FOOTHILLS...

CITY           SKY/WX    TMP DP  RH WIND       PRES   REMARKS
COLO. SPRINGS  PTSUNNY   56  20  24 NE17G26   29.89S
A. F. ACADEMY  MOSUNNY   52  18  26 NE20G26   29.88S
ELLICOTT       NOT AVBL
FALCON         SUNNY     49  20  32 N21G31    29.90S
FORT CARSON    MOSUNNY   56  21  25 VRB6      29.87S
LIMON          SUNNY     52  23  32 N26G36    29.90F
MONUMENT HILL  SUNNY     43  19  39 NE14G22   29.91F
TRINIDAD       PTSUNNY   55  25  31 E10       29.89F
$$

COZ042>045-048>051-090-091-161900-
...NORTHEAST COLORADO...

CITY           SKY/WX    TMP DP  RH WIND       PRES   REMARKS
GREELEY ARPT   SUNNY     54  21  28 N31G37    29.90F
AKRON          MOSUNNY   50  27  40 NW29G40   29.91R
BURLINGTON     PTSUNNY   55  28  35 N25G38    29.90R
WRAY           PTSUNNY   56  30  37 NW28G35   29.90R
STERLING       MOSUNNY   55  30  38 N25G36    29.92R
HOLYOKE        MOSUNNY   54  32  43 NW30G39   29.89S
FORT MORGAN    SUNNY     52  24  33 NW21G33   29.94S
$$

COZ086-089-092>099-161900-
...SOUTHEAST COLORADO...

CITY           SKY/WX    TMP DP  RH WIND       PRES   REMARKS
PUEBLO         MOSUNNY   60  22  23 VRB7      29.86S
LA JUNTA       CLOUDY    60  21  22 N16       29.88R
LAMAR          PTSUNNY   61  20  20 N26G32    29.85R
SPRINGFIELD      N/A     57  27  31 N15       29.89S
$$



USA.gov is the U.S. government's official web portal to all federal, state and local government web resources and services.